Location: Unspecified
(43.1763°N, 79.4719°W)
Time: 16:06:05
(UTC-04:00)

Cosmos 2058 - Visible Passes

Search period start: 25 May 2017 00:00
Search period end: 04 June 2017 00:00
Orbit: 563 x 586 km, 82.5° (Epoch: 24 May)

Date Brightness Start Highest point End Pass type
(mag) Time Alt. Az. Time Alt. Az. Time Alt. Az.
25 May 3.0 03:21:42 41° SSE 03:23:01 68° E 03:27:07 10° NNE visible
25 May 5.2 04:59:52 10° WNW 05:00:28 10° WNW 05:01:04 10° WNW visible
26 May 2.8 03:25:12 46° S 03:26:23 88° W 03:30:31 10° N visible
27 May 2.9 03:28:41 45° SW 03:29:45 65° W 03:33:52 10° N visible
28 May 5.3 01:55:55 13° E 01:56:42 13° E 01:58:42 10° NE visible
28 May 3.3 03:32:09 38° WSW 03:33:09 48° WNW 03:37:11 10° N visible
29 May 5.0 01:59:22 17° E 01:59:57 18° E 02:02:43 10° NE visible
29 May 3.7 03:35:36 31° WSW 03:36:34 36° WNW 03:40:25 10° N visible
30 May 4.6 02:02:48 23° E 02:03:13 23° E 02:06:30 10° NE visible
30 May 4.1 03:39:02 25° W 03:40:01 27° WNW 03:43:35 10° NNW visible
31 May 4.2 02:06:14 30° E 02:06:30 30° E 02:10:09 10° NNE visible
31 May 4.5 03:42:27 19° W 03:43:29 21° WNW 03:46:40 10° NNW visible
01 Jun 3.7 02:09:38 40° E 02:09:49 40° E 02:13:43 10° NNE visible
01 Jun 4.8 03:45:52 15° W 03:46:58 16° WNW 03:49:38 10° NNW visible
02 Jun 3.2 02:13:02 54° ESE 02:13:08 55° E 02:17:13 10° NNE visible
02 Jun 5.1 03:49:16 11° W 03:50:28 13° WNW 03:52:20 10° NW visible
03 Jun 2.8 02:16:25 75° ESE 02:16:30 75° E 02:20:38 10° NNE visible
